{"data":{"norad_id":55406,"epoch":"2026-05-25T04:59:13.632288Z","epoch_age_seconds":47258,"freshness":"FRESH","line1":"1 55406U 23014R   26145.20779667  .00000050  00000+0  11948-4 0  9993","line2":"2 55406  69.9995 231.6631 0003283 270.8298  89.2485 14.98329379183512","mean_motion":14.98329379,"eccentricity":0.0003283,"inclination_deg":69.9995,"raan_deg":231.6631,"arg_perigee_deg":270.8298,"mean_anomaly_deg":89.2485,"bstar":1.1948e-5,"rev_number":18351,"period_min":96.107038958354,"perigee_km":569.77606237979,"apogee_km":574.33956029292,"semimajor_km":6950.1948113364,"source":"CELESTRAK","updated_at":"2026-05-25T13:38:17.795978Z"}}